START_TIME,STEP,MOV.,EG07,t_acc.,EG08,t_acc.,EG09,t_acc.,EB05,t_acc.,EBP05,t_acc.
1979-07-27 21:00:22.060 ,0,0,3.,1.2,0.,1.2,0.,1.2,,0.0,,0.0
1979-07-27 21:00:23.260 ,0,0,2.,1.2,0.,1.2,0.,1.2,,0.0,,0.0
1979-07-27 21:00:24.460 ,0,0,0.,1.2,0.,1.2,0.,1.2,,0.0,,0.0
1979-07-27 21:00:25.660 ,0,0,1.,1.2,0.,1.2,0.,1.2,,0.0,,0.0
1979-07-27 21:00:26.860 ,0,0,1.,1.2,0.,1.2,0.,1.2,,0.0,,0.0
1979-07-27 21:00:28.060 ,0,0,1.,1.2,0.,1.2,0.,1.2,,0.0,,0.0
1979-07-27 21:00:29.260 ,0,0,0.,1.2,0.,1.2,0.,1.2,,0.0,,0.0
1979-07-27 21:00:30.460 ,0,0,0.,1.2,0.,1.2,0.,1.2,,0.0,,0.0
1979-07-27 21:00:31.660 ,0,0,1.,1.2,1.,1.2,0.,1.2,,0.0,,0.0
1979-07-27 21:00:32.860 ,0,0,1.,1.2,1.,1.2,0.,1.2,,0.0,,0.0
1979-07-27 21:00:34.060 ,0,0,0.,1.2,0.,1.2,0.,1.2,,0.0,,0.0
1979-07-27 21:00:35.260 ,0,0,0.,1.2,0.,1.2,0.,1.2,,0.0,,0.0
1979-07-27 21:00:36.460 ,0,0,4.,1.2,1.,1.2,1.,1.2,,0.0,,0.0
1979-07-27 21:00:37.660 ,0,0,0.,1.2,0.,1.2,0.,1.2,,0.0,,0.0
1979-07-27 21:00:38.860 ,0,0,1.,1.2,0.,1.2,0.,1.2,,0.0,,0.0
1979-07-27 21:00:40.060 ,0,0,1.,1.2,0.,1.2,0.,1.2,,0.0,,0.0
1979-07-27 21:00:41.260 ,0,0,0.,1.2,0.,1.2,0.,1.2,,0.0,,0.0
1979-07-27 21:00:42.460 ,0,0,1.,1.2,0.,1.2,0.,1.2,,0.0,,0.0
1979-07-27 21:00:43.660 ,0,0,2.,1.2,0.,1.2,0.,1.2,,0.0,,0.0
1979-07-27 21:00:44.860 ,0,0,0.,1.2,0.,1.2,0.,1.2,,0.0,,0.0
1979-07-27 21:00:46.060 ,0,0,2.,1.2,0.,1.2,0.,1.2,,0.0,,0.0
1979-07-27 21:00:47.260 ,0,0,0.,1.2,0.,1.2,0.,1.2,,0.0,,0.0
1979-07-27 21:00:48.460 ,0,0,0.,1.2,0.,1.2,0.,1.2,,0.0,,0.0
1979-07-27 21:00:49.660 ,0,0,0.,1.2,0.,1.2,0.,1.2,,0.0,,0.0
1979-07-27 21:00:50.860 ,0,0,3.,1.2,0.,1.2,0.,1.2,,0.0,,0.0
1979-07-27 21:00:52.060 ,0,0,0.,1.2,0.,1.2,0.,1.2,,0.0,,0.0
1979-07-27 21:00:53.260 ,0,0,0.,1.2,0.,1.2,0.,1.2,,0.0,,0.0
1979-07-27 21:00:54.460 ,0,0,0.,1.2,0.,1.2,0.,1.2,,0.0,,0.0
1979-07-27 21:00:55.660 ,0,0,2.,1.2,0.,1.2,0.,1.2,,0.0,,0.0
1979-07-27 21:00:56.860 ,0,0,2.,1.2,0.,1.2,0.,1.2,,0.0,,0.0
1979-07-27 21:00:58.060 ,0,0,2.,1.2,0.,1.2,0.,1.2,,0.0,,0.0
1979-07-27 21:00:59.260 ,0,0,1.,1.2,0.,1.2,0.,1.2,,0.0,,0.0
1979-07-27 21:01:00.460 ,0,0,1.,1.2,0.,1.2,0.,1.2,,0.0,,0.0
1979-07-27 21:01:01.660 ,0,0,3.,1.2,0.,1.2,0.,1.2,,0.0,,0.0
1979-07-27 21:01:02.860 ,0,0,3.,1.2,0.,1.2,0.,1.2,,0.0,,0.0
1979-07-27 21:01:04.060 ,0,0,1.,1.2,0.,1.2,0.,1.2,,0.0,,0.0
1979-07-27 21:01:05.260 ,0,0,1.,1.2,0.,1.2,0.,1.2,,0.0,,0.0
1979-07-27 21:01:06.460 ,0,0,0.,1.2,0.,1.2,0.,1.2,,0.0,,0.0
1979-07-27 21:01:07.660 ,0,0,2.,1.2,0.,1.2,0.,1.2,,0.0,,0.0
1979-07-27 21:01:08.860 ,0,0,1.,1.2,0.,1.2,0.,1.2,,0.0,,0.0
1979-07-27 21:01:10.060 ,0,0,0.,1.2,0.,1.2,0.,1.2,,0.0,,0.0
1979-07-27 21:01:11.260 ,0,0,2.,1.2,0.,1.2,0.,1.2,,0.0,,0.0
1979-07-27 21:01:12.460 ,0,0,1.,1.2,0.,1.2,0.,1.2,,0.0,,0.0
1979-07-27 21:01:13.660 ,0,0,2.,1.2,0.,1.2,0.,1.2,,0.0,,0.0
1979-07-27 21:01:14.860 ,0,0,0.,1.2,0.,1.2,0.,1.2,,0.0,,0.0
1979-07-27 21:01:16.060 ,0,0,0.,1.2,0.,1.2,0.,1.2,,0.0,,0.0
1979-07-27 21:01:17.260 ,0,0,3.,1.2,0.,1.2,0.,1.2,,0.0,,0.0
1979-07-27 21:01:18.460 ,0,0,3.,1.2,0.,1.2,0.,1.2,,0.0,,0.0
1979-07-27 21:01:19.660 ,0,0,0.,1.2,0.,1.2,0.,1.2,,0.0,,0.0
1979-07-27 21:01:20.860 ,0,0,0.,1.2,0.,1.2,0.,1.2,,0.0,,0.0
1979-07-27 21:01:22.060 ,0,0,3.,1.2,1.,1.2,0.,1.2,,0.0,,0.0
1979-07-27 21:01:23.260 ,0,0,1.,1.2,0.,1.2,0.,1.2,,0.0,,0.0
1979-07-27 21:01:24.460 ,0,0,1.,1.2,0.,1.2,0.,1.2,,0.0,,0.0
1979-07-27 21:01:25.660 ,0,0,1.,1.2,0.,1.2,0.,1.2,,0.0,,0.0
1979-07-27 21:01:26.860 ,0,0,1.,1.2,0.,1.2,0.,1.2,,0.0,,0.0
1979-07-27 21:01:28.060 ,0,0,2.,1.2,0.,1.2,0.,1.2,,0.0,,0.0
1979-07-27 21:01:29.260 ,0,0,0.,1.2,0.,1.2,0.,1.2,,0.0,,0.0
1979-07-27 21:01:30.460 ,0,0,1.,1.2,0.,1.2,0.,1.2,,0.0,,0.0
1979-07-27 21:01:31.660 ,0,0,1.,1.2,0.,1.2,0.,1.2,,0.0,,0.0
1979-07-27 21:01:32.860 ,0,0,2.,1.2,0.,1.2,0.,1.2,,0.0,,0.0
1979-07-27 21:01:34.060 ,1,0,2.,1.2,0.,1.2,0.,1.2,,0.0,,0.0
1979-07-27 21:01:35.260 ,1,0,0.,1.2,0.,1.2,0.,1.2,,0.0,,0.0
1979-07-27 21:01:36.460 ,1,0,0.,1.2,0.,1.2,0.,1.2,,0.0,,0.0
1979-07-27 21:01:37.660 ,1,0,2.,1.2,0.,1.2,0.,1.2,,0.0,,0.0
1979-07-27 21:01:38.860 ,1,0,1.,1.2,0.,1.2,0.,1.2,,0.0,,0.0
1979-07-27 21:01:40.060 ,1,0,0.,1.2,0.,1.2,0.,1.2,,0.0,,0.0
1979-07-27 21:01:41.260 ,1,0,0.,1.2,0.,1.2,0.,1.2,,0.0,,0.0
1979-07-27 21:01:42.460 ,1,0,0.,1.2,0.,1.2,0.,1.2,,0.0,,0.0
1979-07-27 21:01:43.660 ,1,0,0.,1.2,0.,1.2,0.,1.2,,0.0,,0.0
1979-07-27 21:01:44.860 ,1,0,0.,1.2,0.,1.2,0.,1.2,,0.0,,0.0
1979-07-27 21:01:46.060 ,1,0,1.,1.2,0.,1.2,0.,1.2,,0.0,,0.0
1979-07-27 21:01:47.260 ,1,0,2.,1.2,0.,1.2,0.,1.2,,0.0,,0.0
1979-07-27 21:01:48.460 ,1,0,1.,1.2,0.,1.2,0.,1.2,,0.0,,0.0
1979-07-27 21:01:49.660 ,1,0,1.,1.2,0.,1.2,0.,1.2,,0.0,,0.0
1979-07-27 21:01:50.860 ,1,0,2.,1.2,0.,1.2,0.,1.2,,0.0,,0.0
1979-07-27 21:01:52.060 ,1,0,0.,1.2,0.,1.2,0.,1.2,,0.0,,0.0
1979-07-27 21:01:53.260 ,1,0,0.,1.2,0.,1.2,0.,1.2,,0.0,,0.0
1979-07-27 21:01:54.460 ,1,0,3.,1.2,0.,1.2,0.,1.2,,0.0,,0.0
1979-07-27 21:01:55.660 ,1,0,2.,1.2,0.,1.2,0.,1.2,,0.0,,0.0
1979-07-27 21:01:56.860 ,1,0,1.,1.2,0.,1.2,0.,1.2,,0.0,,0.0
1979-07-27 21:01:58.060 ,1,0,1.,1.2,0.,1.2,0.,1.2,,0.0,,0.0
1979-07-27 21:01:59.260 ,1,0,3.,1.2,1.,1.2,0.,1.2,,0.0,,0.0
1979-07-27 21:02:00.460 ,1,0,1.,1.2,0.,1.2,0.,1.2,,0.0,,0.0
1979-07-27 21:02:01.660 ,1,0,3.,1.2,0.,1.2,0.,1.2,,0.0,,0.0
1979-07-27 21:02:02.860 ,1,0,2.,1.2,0.,1.2,0.,1.2,,0.0,,0.0
1979-07-27 21:02:04.060 ,1,0,0.,1.2,0.,1.2,0.,1.2,,0.0,,0.0
1979-07-27 21:02:05.260 ,1,0,0.,1.2,0.,1.2,0.,1.2,,0.0,,0.0
1979-07-27 21:02:06.460 ,1,0,0.,1.2,0.,1.2,0.,1.2,,0.0,,0.0
1979-07-27 21:02:07.660 ,1,0,0.,1.2,0.,1.2,0.,1.2,,0.0,,0.0
1979-07-27 21:02:08.860 ,1,0,0.,1.2,0.,1.2,0.,1.2,,0.0,,0.0
1979-07-27 21:02:10.060 ,1,0,1.,1.2,1.,1.2,0.,1.2,,0.0,,0.0
1979-07-27 21:02:11.260 ,1,0,1.,1.2,0.,1.2,0.,1.2,,0.0,,0.0
1979-07-27 21:02:12.460 ,1,0,1.,1.2,0.,1.2,0.,1.2,,0.0,,0.0
1979-07-27 21:02:13.660 ,1,0,1.,1.2,0.,1.2,0.,1.2,,0.0,,0.0
1979-07-27 21:02:14.860 ,1,0,3.,1.2,0.,1.2,0.,1.2,,0.0,,0.0
1979-07-27 21:02:16.060 ,1,0,1.,1.2,0.,1.2,0.,1.2,,0.0,,0.0
1979-07-27 21:02:17.260 ,1,0,0.,1.2,0.,1.2,0.,1.2,,0.0,,0.0
1979-07-27 21:02:18.460 ,1,0,3.,1.2,1.,1.2,0.,1.2,,0.0,,0.0
1979-07-27 21:02:19.660 ,1,0,2.,1.2,0.,1.2,0.,1.2,,0.0,,0.0
1979-07-27 21:02:20.860 ,1,0,3.,1.2,0.,1.2,0.,1.2,,0.0,,0.0
1979-07-27 21:02:22.060 ,2,0,0.,1.2,0.,1.2,0.,1.2,,0.0,,0.0
1979-07-27 21:02:23.260 ,2,0,0.,1.2,0.,1.2,0.,1.2,,0.0,,0.0
1979-07-27 21:02:24.460 ,2,0,0.,1.2,0.,1.2,0.,1.2,,0.0,,0.0
1979-07-27 21:02:25.660 ,2,0,4.,1.2,0.,1.2,0.,1.2,,0.0,,0.0
1979-07-27 21:02:26.860 ,2,0,3.,1.2,0.,1.2,0.,1.2,,0.0,,0.0
1979-07-27 21:02:28.060 ,2,0,2.,1.2,0.,1.2,0.,1.2,,0.0,,0.0
1979-07-27 21:02:29.260 ,2,0,1.,1.2,1.,1.2,0.,1.2,,0.0,,0.0
1979-07-27 21:02:30.460 ,2,0,0.,1.2,0.,1.2,0.,1.2,,0.0,,0.0
1979-07-27 21:02:31.660 ,2,0,3.,1.2,1.,1.2,0.,1.2,,0.0,,0.0
1979-07-27 21:02:32.860 ,2,0,1.,1.2,0.,1.2,0.,1.2,,0.0,,0.0
1979-07-27 21:02:34.060 ,2,0,1.,1.2,0.,1.2,0.,1.2,,0.0,,0.0
1979-07-27 21:02:35.260 ,2,0,1.,1.2,0.,1.2,0.,1.2,,0.0,,0.0
1979-07-27 21:02:36.460 ,2,0,0.,1.2,0.,1.2,0.,1.2,,0.0,,0.0
1979-07-27 21:02:37.660 ,2,0,0.,1.2,0.,1.2,0.,1.2,,0.0,,0.0
1979-07-27 21:02:38.860 ,2,0,0.,1.2,0.,1.2,0.,1.2,,0.0,,0.0
1979-07-27 21:02:40.060 ,2,0,0.,1.2,0.,1.2,0.,1.2,,0.0,,0.0
1979-07-27 21:02:41.260 ,2,0,1.,1.2,1.,1.2,0.,1.2,,0.0,,0.0
1979-07-27 21:02:42.460 ,2,0,3.,1.2,0.,1.2,0.,1.2,,0.0,,0.0
1979-07-27 21:02:43.660 ,2,0,0.,1.2,0.,1.2,0.,1.2,,0.0,,0.0
1979-07-27 21:02:44.860 ,2,0,1.,1.2,0.,1.2,0.,1.2,,0.0,,0.0
1979-07-27 21:02:46.060 ,2,0,2.,1.2,0.,1.2,0.,1.2,,0.0,,0.0
1979-07-27 21:02:47.260 ,2,0,0.,1.2,0.,1.2,0.,1.2,,0.0,,0.0
1979-07-27 21:02:48.460 ,2,0,1.,1.2,0.,1.2,0.,1.2,,0.0,,0.0
1979-07-27 21:02:49.660 ,2,0,1.,1.2,0.,1.2,0.,1.2,,0.0,,0.0
1979-07-27 21:02:50.860 ,2,0,2.,1.2,0.,1.2,0.,1.2,,0.0,,0.0
1979-07-27 21:02:52.060 ,2,0,2.,1.2,0.,1.2,0.,1.2,,0.0,,0.0
1979-07-27 21:02:53.260 ,2,0,2.,1.2,0.,1.2,0.,1.2,,0.0,,0.0
1979-07-27 21:02:54.460 ,2,0,0.,1.2,0.,1.2,0.,1.2,,0.0,,0.0
1979-07-27 21:02:55.660 ,2,0,1.,1.2,0.,1.2,0.,1.2,,0.0,,0.0
1979-07-27 21:02:56.860 ,2,0,2.,1.2,0.,1.2,0.,1.2,,0.0,,0.0
1979-07-27 21:02:58.060 ,2,0,1.,1.2,0.,1.2,0.,1.2,,0.0,,0.0
1979-07-27 21:02:59.260 ,2,0,1.,1.2,0.,1.2,0.,1.2,,0.0,,0.0
1979-07-27 21:03:00.460 ,2,0,2.,1.2,0.,1.2,0.,1.2,,0.0,,0.0
1979-07-27 21:03:01.660 ,2,0,1.,1.2,0.,1.2,0.,1.2,,0.0,,0.0
1979-07-27 21:03:02.860 ,2,0,1.,1.2,0.,1.2,0.,1.2,,0.0,,0.0
1979-07-27 21:03:04.060 ,2,0,2.,1.2,0.,1.2,0.,1.2,,0.0,,0.0
1979-07-27 21:03:05.260 ,2,0,0.,1.2,0.,1.2,0.,1.2,,0.0,,0.0
1979-07-27 21:03:06.460 ,2,0,1.,1.2,0.,1.2,0.,1.2,,0.0,,0.0
1979-07-27 21:03:07.660 ,2,0,0.,1.2,0.,1.2,0.,1.2,,0.0,,0.0
1979-07-27 21:03:08.860 ,2,0,1.,1.2,0.,1.2,0.,1.2,,0.0,,0.0
1979-07-27 21:03:10.060 ,3,0,2.,1.2,1.,1.2,1.,1.2,,0.0,,0.0
1979-07-27 21:03:11.260 ,3,0,0.,1.2,0.,1.2,0.,1.2,,0.0,,0.0
1979-07-27 21:03:12.460 ,3,0,1.,1.2,0.,1.2,0.,1.2,,0.0,,0.0
1979-07-27 21:03:13.660 ,3,0,3.,1.2,0.,1.2,0.,1.2,,0.0,,0.0
1979-07-27 21:03:14.860 ,3,0,1.,1.2,0.,1.2,0.,1.2,,0.0,,0.0
1979-07-27 21:03:16.060 ,3,0,0.,1.2,0.,1.2,0.,1.2,,0.0,,0.0
1979-07-27 21:03:17.260 ,3,0,1.,1.2,0.,1.2,0.,1.2,,0.0,,0.0
1979-07-27 21:03:18.460 ,3,0,0.,1.2,0.,1.2,0.,1.2,,0.0,,0.0
1979-07-27 21:03:19.660 ,3,0,2.,1.2,0.,1.2,0.,1.2,,0.0,,0.0
1979-07-27 21:03:20.860 ,3,0,1.,1.2,0.,1.2,0.,1.2,,0.0,,0.0
1979-07-27 21:03:22.060 ,3,0,1.,1.2,0.,1.2,0.,1.2,,0.0,,0.0
1979-07-27 21:03:23.260 ,3,0,1.,1.2,0.,1.2,0.,1.2,,0.0,,0.0
1979-07-27 21:03:24.460 ,3,0,0.,1.2,0.,1.2,0.,1.2,,0.0,,0.0
1979-07-27 21:03:25.660 ,3,0,1.,1.2,1.,1.2,0.,1.2,,0.0,,0.0
1979-07-27 21:03:26.860 ,3,0,1.,1.2,0.,1.2,0.,1.2,,0.0,,0.0
1979-07-27 21:03:28.060 ,3,0,0.,1.2,0.,1.2,0.,1.2,,0.0,,0.0
1979-07-27 21:03:29.260 ,3,0,1.,1.2,0.,1.2,0.,1.2,,0.0,,0.0
1979-07-27 21:03:30.460 ,3,0,0.,1.2,0.,1.2,0.,1.2,,0.0,,0.0
1979-07-27 21:03:31.660 ,3,0,0.,1.2,0.,1.2,0.,1.2,,0.0,,0.0
1979-07-27 21:03:32.860 ,3,0,1.,1.2,0.,1.2,0.,1.2,,0.0,,0.0
1979-07-27 21:03:34.060 ,3,0,3.,1.2,1.,1.2,1.,1.2,,0.0,,0.0
1979-07-27 21:03:35.260 ,3,0,3.,1.2,2.,1.2,0.,1.2,,0.0,,0.0
1979-07-27 21:03:36.460 ,3,0,1.,1.2,0.,1.2,0.,1.2,,0.0,,0.0
1979-07-27 21:03:37.660 ,3,0,1.,1.2,0.,1.2,0.,1.2,,0.0,,0.0
1979-07-27 21:03:38.860 ,3,0,0.,1.2,0.,1.2,0.,1.2,,0.0,,0.0
1979-07-27 21:03:40.060 ,3,0,1.,1.2,0.,1.2,0.,1.2,,0.0,,0.0
1979-07-27 21:03:41.260 ,3,0,0.,1.2,0.,1.2,0.,1.2,,0.0,,0.0
1979-07-27 21:03:42.460 ,3,0,1.,1.2,0.,1.2,0.,1.2,,0.0,,0.0
1979-07-27 21:03:43.660 ,3,0,2.,1.2,1.,1.2,0.,1.2,,0.0,,0.0
1979-07-27 21:03:44.860 ,3,0,1.,1.2,0.,1.2,0.,1.2,,0.0,,0.0
1979-07-27 21:03:46.060 ,3,0,1.,1.2,0.,1.2,0.,1.2,,0.0,,0.0
1979-07-27 21:03:47.260 ,3,0,1.,1.2,0.,1.2,0.,1.2,,0.0,,0.0
1979-07-27 21:03:48.460 ,3,0,3.,1.2,1.,1.2,1.,1.2,,0.0,,0.0
1979-07-27 21:03:49.660 ,3,0,1.,1.2,0.,1.2,0.,1.2,,0.0,,0.0
1979-07-27 21:03:50.860 ,3,0,0.,1.2,0.,1.2,0.,1.2,,0.0,,0.0
1979-07-27 21:03:52.060 ,3,0,2.,1.2,0.,1.2,0.,1.2,,0.0,,0.0
1979-07-27 21:03:53.260 ,3,0,2.,1.2,1.,1.2,0.,1.2,,0.0,,0.0
1979-07-27 21:03:54.460 ,3,0,2.,1.2,1.,1.2,0.,1.2,,0.0,,0.0
1979-07-27 21:03:55.660 ,3,0,1.,1.2,0.,1.2,0.,1.2,,0.0,,0.0
1979-07-27 21:03:56.860 ,3,0,2.,1.2,0.,1.2,0.,1.2,,0.0,,0.0
1979-07-27 21:03:58.060 ,4,0,1.,1.2,0.,1.2,0.,1.2,,0.0,,0.0
1979-07-27 21:03:59.260 ,4,0,2.,1.2,1.,1.2,0.,1.2,,0.0,,0.0
1979-07-27 21:04:00.460 ,4,0,1.,1.2,1.,1.2,0.,1.2,,0.0,,0.0
1979-07-27 21:04:01.660 ,4,0,3.,1.2,0.,1.2,0.,1.2,,0.0,,0.0
1979-07-27 21:04:02.860 ,4,0,0.,1.2,0.,1.2,0.,1.2,,0.0,,0.0
1979-07-27 21:04:04.060 ,4,0,0.,1.2,0.,1.2,0.,1.2,,0.0,,0.0
1979-07-27 21:04:05.260 ,4,0,0.,1.2,0.,1.2,0.,1.2,,0.0,,0.0
1979-07-27 21:04:06.460 ,4,0,4.,1.2,1.,1.2,1.,1.2,,0.0,,0.0
1979-07-27 21:04:07.660 ,4,0,0.,1.2,0.,1.2,0.,1.2,,0.0,,0.0
1979-07-27 21:04:08.860 ,4,0,1.,1.2,0.,1.2,0.,1.2,,0.0,,0.0
1979-07-27 21:04:10.060 ,4,0,0.,1.2,0.,1.2,0.,1.2,,0.0,,0.0
1979-07-27 21:04:11.260 ,4,0,1.,1.2,0.,1.2,0.,1.2,,0.0,,0.0
1979-07-27 21:04:12.460 ,4,0,0.,1.2,0.,1.2,0.,1.2,,0.0,,0.0
1979-07-27 21:04:13.660 ,4,0,0.,1.2,0.,1.2,0.,1.2,,0.0,,0.0
1979-07-27 21:04:14.860 ,4,0,2.,1.2,0.,1.2,0.,1.2,,0.0,,0.0
1979-07-27 21:04:16.060 ,4,0,0.,1.2,0.,1.2,0.,1.2,,0.0,,0.0
1979-07-27 21:04:17.260 ,4,0,0.,1.2,0.,1.2,0.,1.2,,0.0,,0.0
1979-07-27 21:04:18.460 ,4,0,0.,1.2,0.,1.2,0.,1.2,,0.0,,0.0
1979-07-27 21:04:19.660 ,4,0,1.,1.2,0.,1.2,0.,1.2,,0.0,,0.0
1979-07-27 21:04:20.860 ,4,0,1.,1.2,0.,1.2,0.,1.2,,0.0,,0.0
1979-07-27 21:04:22.060 ,4,0,1.,1.2,1.,1.2,0.,1.2,,0.0,,0.0
1979-07-27 21:04:23.260 ,4,0,3.,1.2,1.,1.2,1.,1.2,,0.0,,0.0
1979-07-27 21:04:24.460 ,4,0,2.,1.2,0.,1.2,0.,1.2,,0.0,,0.0
1979-07-27 21:04:25.660 ,4,0,0.,1.2,0.,1.2,0.,1.2,,0.0,,0.0
1979-07-27 21:04:26.860 ,4,0,3.,1.2,0.,1.2,0.,1.2,,0.0,,0.0
1979-07-27 21:04:28.060 ,4,0,3.,1.2,0.,1.2,0.,1.2,,0.0,,0.0
1979-07-27 21:04:29.260 ,4,0,1.,1.2,0.,1.2,0.,1.2,,0.0,,0.0
1979-07-27 21:04:30.460 ,4,0,1.,1.2,1.,1.2,0.,1.2,,0.0,,0.0
1979-07-27 21:04:31.660 ,4,0,2.,1.2,0.,1.2,0.,1.2,,0.0,,0.0
1979-07-27 21:04:32.860 ,4,0,0.,1.2,0.,1.2,0.,1.2,,0.0,,0.0
1979-07-27 21:04:34.060 ,4,0,1.,1.2,1.,1.2,0.,1.2,,0.0,,0.0
1979-07-27 21:04:35.260 ,4,0,1.,1.2,0.,1.2,0.,1.2,,0.0,,0.0
1979-07-27 21:04:36.460 ,4,0,1.,1.2,0.,1.2,0.,1.2,,0.0,,0.0
1979-07-27 21:04:37.660 ,4,0,0.,1.2,0.,1.2,0.,1.2,,0.0,,0.0
1979-07-27 21:04:38.860 ,4,0,2.,1.2,0.,1.2,0.,1.2,,0.0,,0.0
1979-07-27 21:04:40.060 ,4,0,0.,1.2,0.,1.2,0.,1.2,,0.0,,0.0
1979-07-27 21:04:41.260 ,4,0,0.,1.2,0.,1.2,0.,1.2,,0.0,,0.0
1979-07-27 21:04:42.460 ,4,0,2.,1.2,1.,1.2,1.,1.2,,0.0,,0.0
1979-07-27 21:04:43.660 ,4,0,3.,1.2,0.,1.2,0.,1.2,,0.0,,0.0
1979-07-27 21:04:44.860 ,4,0,1.,1.2,0.,1.2,0.,1.2,,0.0,,0.0
1979-07-27 21:04:46.060 ,5,0,2.,1.2,0.,1.2,0.,1.2,,0.0,,0.0
1979-07-27 21:04:47.260 ,5,0,1.,1.2,1.,1.2,0.,1.2,,0.0,,0.0
1979-07-27 21:04:48.460 ,5,0,0.,1.2,0.,1.2,0.,1.2,,0.0,,0.0
1979-07-27 21:04:49.660 ,5,0,0.,1.2,0.,1.2,0.,1.2,,0.0,,0.0
1979-07-27 21:04:50.860 ,5,0,2.,1.2,0.,1.2,0.,1.2,,0.0,,0.0
1979-07-27 21:04:52.060 ,5,0,0.,1.2,0.,1.2,0.,1.2,,0.0,,0.0
1979-07-27 21:04:53.260 ,5,0,2.,1.2,1.,1.2,0.,1.2,,0.0,,0.0
1979-07-27 21:04:54.460 ,5,0,2.,1.2,0.,1.2,0.,1.2,,0.0,,0.0
1979-07-27 21:04:55.660 ,5,0,1.,1.2,0.,1.2,0.,1.2,,0.0,,0.0
1979-07-27 21:04:56.860 ,5,0,3.,1.2,0.,1.2,0.,1.2,,0.0,,0.0
1979-07-27 21:04:58.060 ,5,0,1.,1.2,0.,1.2,0.,1.2,,0.0,,0.0
1979-07-27 21:04:59.260 ,5,0,1.,1.2,0.,1.2,0.,1.2,,0.0,,0.0
1979-07-27 21:05:00.460 ,5,0,1.,1.2,1.,1.2,0.,1.2,,0.0,,0.0
1979-07-27 21:05:01.660 ,5,0,3.,1.2,1.,1.2,0.,1.2,,0.0,,0.0
1979-07-27 21:05:02.860 ,5,0,0.,1.2,0.,1.2,0.,1.2,,0.0,,0.0
1979-07-27 21:05:04.060 ,5,0,0.,1.2,0.,1.2,0.,1.2,,0.0,,0.0
1979-07-27 21:05:05.260 ,5,0,2.,1.2,0.,1.2,0.,1.2,,0.0,,0.0
1979-07-27 21:05:06.460 ,5,0,1.,1.2,1.,1.2,1.,1.2,,0.0,,0.0
1979-07-27 21:05:07.660 ,5,0,2.,1.2,0.,1.2,0.,1.2,,0.0,,0.0
1979-07-27 21:05:08.860 ,5,0,2.,1.2,1.,1.2,1.,1.2,,0.0,,0.0
1979-07-27 21:05:10.060 ,5,0,0.,1.2,0.,1.2,0.,1.2,,0.0,,0.0
1979-07-27 21:05:11.260 ,5,0,3.,1.2,0.,1.2,0.,1.2,,0.0,,0.0
1979-07-27 21:05:12.460 ,5,0,1.,1.2,0.,1.2,0.,1.2,,0.0,,0.0
1979-07-27 21:05:13.660 ,5,0,0.,1.2,0.,1.2,0.,1.2,,0.0,,0.0
1979-07-27 21:05:14.860 ,5,0,0.,1.2,0.,1.2,0.,1.2,,0.0,,0.0
1979-07-27 21:05:16.060 ,5,0,2.,1.2,1.,1.2,0.,1.2,,0.0,,0.0
1979-07-27 21:05:17.260 ,5,0,2.,1.2,0.,1.2,0.,1.2,,0.0,,0.0
1979-07-27 21:05:18.460 ,5,0,3.,1.2,0.,1.2,0.,1.2,,0.0,,0.0
1979-07-27 21:05:19.660 ,5,0,0.,1.2,0.,1.2,0.,1.2,,0.0,,0.0
1979-07-27 21:05:20.860 ,5,0,2.,1.2,0.,1.2,0.,1.2,,0.0,,0.0
1979-07-27 21:05:22.060 ,5,0,2.,1.2,0.,1.2,0.,1.2,,0.0,,0.0
1979-07-27 21:05:23.260 ,5,0,0.,1.2,0.,1.2,0.,1.2,,0.0,,0.0
1979-07-27 21:05:24.460 ,5,0,4.,1.2,0.,1.2,0.,1.2,,0.0,,0.0
1979-07-27 21:05:25.660 ,5,0,0.,1.2,0.,1.2,0.,1.2,,0.0,,0.0
1979-07-27 21:05:26.860 ,5,0,0.,1.2,0.,1.2,0.,1.2,,0.0,,0.0
1979-07-27 21:05:28.060 ,5,0,1.,1.2,0.,1.2,0.,1.2,,0.0,,0.0
1979-07-27 21:05:29.260 ,5,0,2.,1.2,0.,1.2,0.,1.2,,0.0,,0.0
1979-07-27 21:05:30.460 ,5,0,4.,1.2,0.,1.2,0.,1.2,,0.0,,0.0
1979-07-27 21:05:31.660 ,5,0,1.,1.2,0.,1.2,0.,1.2,,0.0,,0.0
1979-07-27 21:05:32.860 ,5,0,2.,1.2,0.,1.2,0.,1.2,,0.0,,0.0
1979-07-27 21:05:34.060 ,6,0,0.,1.2,0.,1.2,0.,1.2,,0.0,,0.0
1979-07-27 21:05:35.260 ,6,0,1.,1.2,0.,1.2,0.,1.2,,0.0,,0.0
1979-07-27 21:05:36.460 ,6,0,2.,1.2,0.,1.2,0.,1.2,,0.0,,0.0
1979-07-27 21:05:37.660 ,6,0,0.,1.2,0.,1.2,0.,1.2,,0.0,,0.0
1979-07-27 21:05:38.860 ,6,0,2.,1.2,0.,1.2,0.,1.2,,0.0,,0.0
1979-07-27 21:05:40.060 ,6,0,0.,1.2,0.,1.2,0.,1.2,,0.0,,0.0
1979-07-27 21:05:41.260 ,6,0,1.,1.2,0.,1.2,0.,1.2,,0.0,,0.0
1979-07-27 21:05:42.460 ,6,0,1.,1.2,0.,1.2,0.,1.2,,0.0,,0.0
1979-07-27 21:05:43.660 ,6,0,1.,1.2,1.,1.2,1.,1.2,,0.0,,0.0
1979-07-27 21:05:44.860 ,6,0,1.,1.2,0.,1.2,0.,1.2,,0.0,,0.0
1979-07-27 21:05:46.060 ,6,0,1.,1.2,1.,1.2,0.,1.2,,0.0,,0.0
1979-07-27 21:05:47.260 ,6,0,1.,1.2,0.,1.2,0.,1.2,,0.0,,0.0
1979-07-27 21:05:48.460 ,6,0,4.,1.2,1.,1.2,0.,1.2,,0.0,,0.0
1979-07-27 21:05:49.660 ,6,0,2.,1.2,0.,1.2,0.,1.2,,0.0,,0.0
1979-07-27 21:05:50.860 ,6,0,0.,1.2,0.,1.2,0.,1.2,,0.0,,0.0
1979-07-27 21:05:52.060 ,6,0,2.,1.2,0.,1.2,0.,1.2,,0.0,,0.0
1979-07-27 21:05:53.260 ,6,0,1.,1.2,0.,1.2,0.,1.2,,0.0,,0.0
1979-07-27 21:05:54.460 ,6,0,1.,1.2,0.,1.2,0.,1.2,,0.0,,0.0
1979-07-27 21:05:55.660 ,6,0,1.,1.2,0.,1.2,0.,1.2,,0.0,,0.0
1979-07-27 21:05:56.860 ,6,0,2.,1.2,1.,1.2,0.,1.2,,0.0,,0.0
1979-07-27 21:05:58.060 ,6,0,0.,1.2,0.,1.2,0.,1.2,,0.0,,0.0
1979-07-27 21:05:59.260 ,6,0,5.,1.2,0.,1.2,0.,1.2,,0.0,,0.0
1979-07-27 21:06:00.460 ,6,0,0.,1.2,0.,1.2,0.,1.2,,0.0,,0.0
1979-07-27 21:06:01.660 ,6,0,1.,1.2,0.,1.2,0.,1.2,,0.0,,0.0
1979-07-27 21:06:02.860 ,6,0,0.,1.2,0.,1.2,0.,1.2,,0.0,,0.0
1979-07-27 21:06:04.060 ,6,0,0.,1.2,0.,1.2,0.,1.2,,0.0,,0.0
1979-07-27 21:06:05.260 ,6,0,2.,1.2,0.,1.2,0.,1.2,,0.0,,0.0
1979-07-27 21:06:06.460 ,6,0,3.,1.2,0.,1.2,0.,1.2,,0.0,,0.0
1979-07-27 21:06:07.660 ,6,0,0.,1.2,0.,1.2,0.,1.2,,0.0,,0.0
1979-07-27 21:06:08.860 ,6,0,0.,1.2,0.,1.2,0.,1.2,,0.0,,0.0
1979-07-27 21:06:10.060 ,6,0,1.,1.2,0.,1.2,0.,1.2,,0.0,,0.0
1979-07-27 21:06:11.260 ,6,0,2.,1.2,0.,1.2,0.,1.2,,0.0,,0.0
1979-07-27 21:06:12.460 ,6,0,2.,1.2,0.,1.2,0.,1.2,,0.0,,0.0
1979-07-27 21:06:13.660 ,6,0,0.,1.2,0.,1.2,0.,1.2,,0.0,,0.0
1979-07-27 21:06:14.860 ,6,0,1.,1.2,1.,1.2,0.,1.2,,0.0,,0.0
1979-07-27 21:06:16.060 ,6,0,4.,1.2,0.,1.2,0.,1.2,,0.0,,0.0
1979-07-27 21:06:17.260 ,6,0,0.,1.2,0.,1.2,0.,1.2,,0.0,,0.0
1979-07-27 21:06:18.460 ,6,0,2.,1.2,0.,1.2,0.,1.2,,0.0,,0.0
1979-07-27 21:06:19.660 ,6,0,3.,1.2,0.,1.2,0.,1.2,,0.0,,0.0
1979-07-27 21:06:20.860 ,6,0,1.,1.2,1.,1.2,0.,1.2,,0.0,,0.0
1979-07-27 21:06:22.060 ,7,0,0.,1.2,0.,1.2,0.,1.2,,0.0,,0.0
1979-07-27 21:06:23.260 ,7,0,1.,1.2,0.,1.2,0.,1.2,,0.0,,0.0
1979-07-27 21:06:24.460 ,7,0,1.,1.2,0.,1.2,0.,1.2,,0.0,,0.0
1979-07-27 21:06:25.660 ,7,0,0.,1.2,0.,1.2,0.,1.2,,0.0,,0.0
1979-07-27 21:06:26.860 ,7,0,0.,1.2,0.,1.2,0.,1.2,,0.0,,0.0
1979-07-27 21:06:28.060 ,7,0,0.,1.2,0.,1.2,0.,1.2,,0.0,,0.0
1979-07-27 21:06:29.260 ,7,0,0.,1.2,0.,1.2,0.,1.2,,0.0,,0.0
1979-07-27 21:06:30.460 ,7,0,1.,1.2,0.,1.2,0.,1.2,,0.0,,0.0
1979-07-27 21:06:31.660 ,7,0,0.,1.2,0.,1.2,0.,1.2,,0.0,,0.0
1979-07-27 21:06:32.860 ,7,0,0.,1.2,0.,1.2,0.,1.2,,0.0,,0.0
1979-07-27 21:06:34.060 ,7,0,0.,1.2,0.,1.2,0.,1.2,,0.0,,0.0
1979-07-27 21:06:35.260 ,7,0,0.,1.2,0.,1.2,0.,1.2,,0.0,,0.0
1979-07-27 21:06:36.460 ,7,0,2.,1.2,1.,1.2,1.,1.2,,0.0,,0.0
1979-07-27 21:06:37.660 ,7,0,0.,1.2,0.,1.2,0.,1.2,,0.0,,0.0
1979-07-27 21:06:38.860 ,7,0,0.,1.2,0.,1.2,0.,1.2,,0.0,,0.0
1979-07-27 21:06:40.060 ,7,0,2.,1.2,1.,1.2,1.,1.2,,0.0,,0.0
1979-07-27 21:06:41.260 ,7,0,0.,1.2,0.,1.2,0.,1.2,,0.0,,0.0
1979-07-27 21:06:42.460 ,7,0,0.,1.2,0.,1.2,0.,1.2,,0.0,,0.0
1979-07-27 21:06:43.660 ,7,0,0.,1.2,0.,1.2,0.,1.2,,0.0,,0.0
1979-07-27 21:06:44.860 ,7,0,1.,1.2,0.,1.2,0.,1.2,,0.0,,0.0
1979-07-27 21:06:46.060 ,7,0,1.,1.2,0.,1.2,0.,1.2,,0.0,,0.0
1979-07-27 21:06:47.260 ,7,0,0.,1.2,0.,1.2,0.,1.2,,0.0,,0.0
1979-07-27 21:06:48.460 ,7,0,0.,1.2,0.,1.2,0.,1.2,,0.0,,0.0
1979-07-27 21:06:49.660 ,7,0,0.,1.2,0.,1.2,0.,1.2,,0.0,,0.0
1979-07-27 21:06:50.860 ,7,0,0.,1.2,0.,1.2,0.,1.2,,0.0,,0.0
1979-07-27 21:06:52.060 ,7,0,1.,1.2,0.,1.2,0.,1.2,,0.0,,0.0
1979-07-27 21:06:53.260 ,7,0,0.,1.2,0.,1.2,0.,1.2,,0.0,,0.0
1979-07-27 21:06:54.460 ,7,0,0.,1.2,0.,1.2,0.,1.2,,0.0,,0.0
1979-07-27 21:06:55.660 ,7,0,1.,1.2,0.,1.2,0.,1.2,,0.0,,0.0
1979-07-27 21:06:56.860 ,7,0,1.,1.2,0.,1.2,0.,1.2,,0.0,,0.0
1979-07-27 21:06:58.060 ,7,0,0.,1.2,0.,1.2,0.,1.2,,0.0,,0.0
1979-07-27 21:06:59.260 ,7,0,1.,1.2,0.,1.2,0.,1.2,,0.0,,0.0
1979-07-27 21:07:00.460 ,7,0,0.,1.2,0.,1.2,0.,1.2,,0.0,,0.0
1979-07-27 21:07:01.660 ,7,0,0.,1.2,0.,1.2,0.,1.2,,0.0,,0.0
1979-07-27 21:07:02.860 ,7,0,0.,1.2,0.,1.2,0.,1.2,,0.0,,0.0
1979-07-27 21:07:04.060 ,7,0,2.,1.2,0.,1.2,0.,1.2,,0.0,,0.0
1979-07-27 21:07:05.260 ,7,0,0.,1.2,0.,1.2,0.,1.2,,0.0,,0.0
1979-07-27 21:07:06.460 ,7,0,0.,1.2,0.,1.2,0.,1.2,,0.0,,0.0
1979-07-27 21:07:07.660 ,7,0,1.,1.2,0.,1.2,0.,1.2,,0.0,,0.0
1979-07-27 21:07:08.860 ,7,0,2.,1.2,0.,1.2,0.,1.2,,0.0,,0.0
1979-07-27 21:07:10.060 ,3,0,0.,1.2,0.,1.2,0.,1.2,,0.0,,0.0
1979-07-27 21:07:11.260 ,3,0,0.,1.2,0.,1.2,0.,1.2,,0.0,,0.0
1979-07-27 21:07:12.460 ,3,0,3.,1.2,0.,1.2,0.,1.2,,0.0,,0.0
1979-07-27 21:07:13.660 ,3,0,1.,1.2,0.,1.2,0.,1.2,,0.0,,0.0
1979-07-27 21:07:14.860 ,3,0,1.,1.2,0.,1.2,0.,1.2,,0.0,,0.0
1979-07-27 21:07:16.060 ,3,0,1.,1.2,0.,1.2,0.,1.2,,0.0,,0.0
1979-07-27 21:07:17.260 ,3,0,1.,1.2,0.,1.2,0.,1.2,,0.0,,0.0
1979-07-27 21:07:18.460 ,3,0,1.,1.2,0.,1.2,0.,1.2,,0.0,,0.0
1979-07-27 21:07:19.660 ,3,0,2.,1.2,0.,1.2,0.,1.2,,0.0,,0.0
1979-07-27 21:07:20.860 ,3,0,1.,1.2,0.,1.2,0.,1.2,,0.0,,0.0
1979-07-27 21:07:22.060 ,3,0,1.,1.2,0.,1.2,0.,1.2,,0.0,,0.0
1979-07-27 21:07:23.260 ,3,0,2.,1.2,0.,1.2,0.,1.2,,0.0,,0.0
1979-07-27 21:07:24.460 ,3,0,0.,1.2,0.,1.2,0.,1.2,,0.0,,0.0
1979-07-27 21:07:25.660 ,3,0,0.,1.2,0.,1.2,0.,1.2,,0.0,,0.0
1979-07-27 21:07:26.860 ,3,0,2.,1.2,1.,1.2,0.,1.2,,0.0,,0.0
1979-07-27 21:07:28.060 ,3,0,1.,1.2,0.,1.2,0.,1.2,,0.0,,0.0
1979-07-27 21:07:29.260 ,3,0,0.,1.2,0.,1.2,0.,1.2,,0.0,,0.0
1979-07-27 21:07:30.460 ,3,0,0.,1.2,0.,1.2,0.,1.2,,0.0,,0.0
1979-07-27 21:07:31.660 ,3,0,2.,1.2,1.,1.2,1.,1.2,,0.0,,0.0
1979-07-27 21:07:32.860 ,3,0,2.,1.2,0.,1.2,0.,1.2,,0.0,,0.0
1979-07-27 21:07:34.060 ,0,0,1.,1.2,0.,1.2,0.,1.2,,0.0,,0.0
1979-07-27 21:07:35.260 ,0,0,0.,1.2,0.,1.2,0.,1.2,,0.0,,0.0
1979-07-27 21:07:36.460 ,0,0,1.,1.2,0.,1.2,0.,1.2,,0.0,,0.0
1979-07-27 21:07:37.660 ,0,0,1.,1.2,1.,1.2,0.,1.2,,0.0,,0.0
1979-07-27 21:07:38.860 ,0,0,3.,1.2,1.,1.2,0.,1.2,,0.0,,0.0
1979-07-27 21:07:40.060 ,0,0,2.,1.2,0.,1.2,0.,1.2,,0.0,,0.0
1979-07-27 21:07:41.260 ,0,0,1.,1.2,0.,1.2,0.,1.2,,0.0,,0.0
1979-07-27 21:07:42.460 ,0,0,0.,1.2,0.,1.2,0.,1.2,,0.0,,0.0
1979-07-27 21:07:43.660 ,0,0,2.,1.2,1.,1.2,1.,1.2,,0.0,,0.0
1979-07-27 21:07:44.860 ,0,0,2.,1.2,0.,1.2,0.,1.2,,0.0,,0.0
1979-07-27 21:07:46.060 ,0,0,1.,1.2,0.,1.2,0.,1.2,,0.0,,0.0
1979-07-27 21:07:47.260 ,0,0,0.,1.2,0.,1.2,0.,1.2,,0.0,,0.0
1979-07-27 21:07:48.460 ,0,0,0.,1.2,0.,1.2,0.,1.2,,0.0,,0.0
1979-07-27 21:07:49.660 ,0,0,2.,1.2,0.,1.2,0.,1.2,,0.0,,0.0
1979-07-27 21:07:50.860 ,0,0,4.,1.2,0.,1.2,0.,1.2,,0.0,,0.0
1979-07-27 21:07:52.060 ,0,0,0.,1.2,0.,1.2,0.,1.2,,0.0,,0.0
1979-07-27 21:07:53.260 ,0,0,0.,1.2,0.,1.2,0.,1.2,,0.0,,0.0
1979-07-27 21:07:54.460 ,0,0,1.,1.2,0.,1.2,0.,1.2,,0.0,,0.0
1979-07-27 21:07:55.660 ,0,0,2.,1.2,0.,1.2,0.,1.2,,0.0,,0.0
1979-07-27 21:07:56.860 ,0,0,0.,1.2,0.,1.2,0.,1.2,,0.0,,0.0
1979-07-27 21:07:58.060 ,4,0,1.,1.2,0.,1.2,0.,1.2,,0.0,,0.0
1979-07-27 21:07:59.260 ,4,0,1.,1.2,0.,1.2,0.,1.2,,0.0,,0.0
1979-07-27 21:08:00.460 ,4,0,1.,1.2,0.,1.2,0.,1.2,,0.0,,0.0
1979-07-27 21:08:01.660 ,4,0,1.,1.2,0.,1.2,0.,1.2,,0.0,,0.0
1979-07-27 21:08:02.860 ,4,0,0.,1.2,0.,1.2,0.,1.2,,0.0,,0.0
1979-07-27 21:08:04.060 ,4,0,0.,1.2,0.,1.2,0.,1.2,,0.0,,0.0
1979-07-27 21:08:05.260 ,4,0,0.,1.2,0.,1.2,0.,1.2,,0.0,,0.0
1979-07-27 21:08:06.460 ,4,0,3.,1.2,0.,1.2,0.,1.2,,0.0,,0.0
1979-07-27 21:08:07.660 ,4,0,2.,1.2,0.,1.2,0.,1.2,,0.0,,0.0
1979-07-27 21:08:08.860 ,4,0,2.,1.2,0.,1.2,0.,1.2,,0.0,,0.0
1979-07-27 21:08:10.060 ,4,0,1.,1.2,0.,1.2,0.,1.2,,0.0,,0.0
1979-07-27 21:08:11.260 ,4,0,2.,1.2,0.,1.2,0.,1.2,,0.0,,0.0